Location: Amsterdam
(30.7274°N, 84.4357°W)
Time: 05:48:44
(UTC+00:00)

Vanguard 2 - Visible Passes

Search period start: 18 February 2026 00:00
Search period end: 28 February 2026 00:00
Orbit: 553 x 2897 km, 32.9° (Epoch: 17 February)

Date Brightness Start Highest point End Pass type
(mag) Time Alt. Az. Time Alt. Az. Time Alt. Az.
18 Feb 8.1 10:30:58 32° SW 10:33:35 54° SSE 10:38:10 10° E visible
19 Feb 10.4 08:41:26 14° ESE 08:41:26 14° ESE 08:42:24 10° E visible
19 Feb 7.8 10:42:23 30° WSW 10:45:36 70° SSE 10:50:13 10° E visible
20 Feb 10.0 08:52:48 21° ESE 08:52:48 21° ESE 08:54:48 10° E visible
20 Feb 7.6 10:53:46 26° WSW 10:57:37 85° SSE 11:02:14 10° ENE visible
21 Feb 9.6 09:04:07 30° ESE 09:04:07 30° ESE 09:07:02 10° E visible
21 Feb 7.6 11:05:04 21° W 11:09:39 82° NNW 11:14:14 10° ENE visible
22 Feb 9.1 09:15:23 42° ESE 09:15:23 42° ESE 09:19:07 10° E visible
22 Feb 7.6 11:16:19 16° W 11:21:42 74° N 11:26:14 10° ENE visible
23 Feb 8.6 09:26:35 59° ESE 09:26:35 59° ESE 09:31:10 10° ENE visible
23 Feb 7.7 11:27:31 12° W 11:33:46 70° N 11:38:16 10° E visible
24 Feb 8.3 09:37:44 79° ESE 09:37:44 79° ESE 09:43:11 10° ENE visible
24 Feb 7.7 11:39:08 10° W 11:45:51 71° N 11:50:18 10° E visible
25 Feb 8.2 09:48:52 79° WNW 09:49:21 86° N 09:55:11 10° ENE visible
26 Feb 10.7 07:59:02 14° E 07:59:02 14° E 07:59:51 10° E visible
26 Feb 8.2 09:59:57 61° WNW 10:01:24 79° N 10:07:11 10° E visible
27 Feb 10.4 08:10:06 21° E 08:10:06 21° E 08:11:53 10° ENE visible
27 Feb 8.2 10:11:01 47° WNW 10:13:29 76° N 10:19:12 10° E visible
